Chatham, MA

7:12 PM EST on December 15, 2019 (GMT -0500)
Chatham Municipal

Weather History for KCQX - November, 2019

Change the Weather History Date:

Tuesday, November 19, 2019

  Actual Average Record
Temperature  
Mean Temperature 45 °F -  
Max Temperature 48 °F 48 °F 61 °F (1991)
Min Temperature 42 °F 36 °F 24 °F (2014)
Degree Days  
Heating Degree Days 20    
Moisture  
Dew Point 43 °F    
Average Humidity 94    
Maximum Humidity 100    
Minimum Humidity 82    
Precipitation  
Precipitation 0.04 in - - ()
Sea Level Pressure  
Sea Level Pressure 29.75 in    
Wind  
Wind Speed 3 mph ()    
Max Wind Speed 6 mph    
Max Gust Speed -    
Visibility 7.7 miles    
Events Rain    
Averages and records for this station are not official NWS values.
T = Trace of Precipitation, MM = Missing Value Source: Averaged Metar Reports

Daily Weather History Graph

Daily Weather History Graph

Search for Another Location

Airport or City:

Astronomy

Nov. 19, 2019 Rise Set
Actual Time 6:33 AM EST 4:16 PM EST
Civil Twilight 6:03 AM EST 4:46 PM EST
Nautical Twilight 5:29 AM EST 5:20 PM EST
Astronomical Twilight 4:56 AM EST 5:53 PM EST
Moon 11:09 PM EST (11/19) 12:41 PM EST (11/19)
Length of Visible Light 10h 43m
Length of Day
9h 43m
Waning Gibbous, 52% of the Moon is Illuminated
Nov 19
Waning Gibbous
Nov 19
Last Quarter
Nov 26
New
Dec 4
First Quarter
Dec 12
Full

Hourly Weather History & Observations

Time (EST) Temp. Windchill Dew Point Humidity Pressure Visibility Wind Dir Wind Speed Gust Speed Precip Events Conditions
12:52 AM 45.0 °F 43.5 °F 44.1 °F 97% 29.65 in 9.0 mi Variable 3.5 mph - N/A   Overcast
1:04 AM 45.0 °F 42.6 °F 44.1 °F 97% 29.63 in 5.0 mi NNW 4.6 mph - N/A   Overcast
1:14 AM 45.0 °F 42.6 °F 44.1 °F 97% 29.64 in 3.0 mi Variable 4.6 mph - N/A   Overcast
1:52 AM 44.1 °F 41.5 °F 44.1 °F 100% 29.66 in 4.0 mi NNW 4.6 mph - N/A   Overcast
2:03 AM 44.1 °F 40.8 °F 44.1 °F 100% 29.66 in 5.0 mi NW 5.8 mph - N/A   Overcast
2:52 AM 44.1 °F 42.5 °F 43.0 °F 96% 29.69 in 4.0 mi Variable 3.5 mph - N/A   Overcast
3:15 AM 44.1 °F 41.5 °F 43.0 °F 96% 29.69 in 3.0 mi NW 4.6 mph - N/A   Overcast
3:30 AM 44.1 °F 41.5 °F 43.0 °F 96% 29.69 in 3.0 mi NW 4.6 mph - N/A   Overcast
3:52 AM 44.1 °F 41.5 °F 43.0 °F 96% 29.70 in 3.0 mi Variable 4.6 mph - N/A   Overcast
4:04 AM 43.0 °F 41.3 °F 43.0 °F 100% 29.69 in 4.0 mi Variable 3.5 mph - N/A   Overcast
4:40 AM 43.0 °F 40.3 °F 43.0 °F 100% 29.71 in 3.0 mi NW 4.6 mph - N/A   Overcast
4:52 AM 43.0 °F 41.3 °F 43.0 °F 100% 29.72 in 5.0 mi Variable 3.5 mph - N/A   Overcast
5:37 AM 43.0 °F - 43.0 °F 100% 29.73 in 9.0 mi Calm Calm - 0.01 in   Overcast
5:52 AM 43.0 °F - 43.0 °F 100% 29.74 in 10.0 mi Calm Calm - 0.01 in   Overcast
6:26 AM 43.0 °F - 42.1 °F 97% 29.74 in 9.0 mi Calm Calm - N/A   Overcast
6:47 AM 42.8 °F - 42.8 °F 100% 29.75 in 1.8 mi Calm Calm - 0.01 in Rain Rain
6:48 AM 43.0 °F - 43.0 °F 100% 29.76 in 1.8 mi Calm Calm - 0.01 in Rain Rain
6:56 AM 44.1 °F - 43.0 °F 96% 29.75 in 3.0 mi Calm Calm - 0.01 in Rain Light Rain
7:03 AM 44.1 °F - 43.0 °F 96% 29.76 in 4.0 mi Calm Calm - 0.01 in Rain Light Rain
7:28 AM 43.0 °F - 42.1 °F 97% 29.76 in 10.0 mi Calm Calm - 0.02 in   Overcast
7:39 AM 44.1 °F - 43.0 °F 96% 29.76 in 10.0 mi Calm Calm - 0.02 in   Overcast
7:52 AM 44.1 °F 42.5 °F 43.0 °F 96% 29.77 in 10.0 mi WSW 3.5 mph - 0.02 in   Overcast
8:52 AM 44.1 °F - 43.0 °F 96% 29.77 in 10.0 mi Calm Calm - N/A   Overcast
9:52 AM 45.0 °F 43.5 °F 44.1 °F 97% 29.78 in 10.0 mi Variable 3.5 mph - N/A   Overcast
10:52 AM 45.0 °F 42.6 °F 43.0 °F 93% 29.77 in 10.0 mi Variable 4.6 mph - N/A   Overcast
11:01 AM 46.0 °F 43.1 °F 44.1 °F 93% 29.76 in 10.0 mi SSW 5.8 mph - N/A   Overcast
11:25 AM 46.9 °F - 45.0 °F 93% 29.76 in 10.0 mi Variable 3.5 mph - N/A   Overcast
11:52 AM 48.0 °F - 45.0 °F 89% 29.77 in 10.0 mi South 5.8 mph - N/A   Overcast
12:52 PM 46.9 °F - 44.1 °F 90% 29.76 in 10.0 mi Calm Calm - N/A   Overcast
1:04 PM 48.0 °F - 44.1 °F 86% 29.75 in 10.0 mi SW 4.6 mph - N/A   Overcast
1:52 PM 46.9 °F - 45.0 °F 93% 29.76 in 9.0 mi West 4.6 mph - N/A   Overcast
1:59 PM 46.9 °F - 45.0 °F 93% 29.75 in 10.0 mi Variable 3.5 mph - N/A   Overcast
2:37 PM 48.0 °F - 45.0 °F 89% 29.76 in 10.0 mi WSW 3.5 mph - N/A   Overcast
2:52 PM 48.9 °F - 45.0 °F 86% 29.78 in 10.0 mi Variable 3.5 mph - N/A   Mostly Cloudy
3:52 PM 48.0 °F - 45.0 °F 89% 29.79 in 10.0 mi Calm Calm - N/A   Overcast
4:30 PM 46.9 °F - 44.1 °F 90% 29.80 in 10.0 mi Calm Calm - N/A   Overcast
4:52 PM 46.9 °F - 44.1 °F 90% 29.82 in 10.0 mi Calm Calm - N/A   Overcast
5:52 PM 46.0 °F - 44.1 °F 93% 29.84 in 10.0 mi Calm Calm - N/A   Overcast
6:52 PM 46.0 °F - 43.0 °F 89% 29.85 in 10.0 mi Calm Calm - N/A   Overcast
7:52 PM 46.0 °F 44.8 °F 42.1 °F 86% 29.85 in 10.0 mi North 3.5 mph - N/A   Overcast
8:52 PM 45.0 °F - 41.0 °F 86% 29.85 in 10.0 mi Calm Calm - N/A   Overcast
9:52 PM 45.0 °F - 42.1 °F 90% 29.85 in 10.0 mi Calm Calm - N/A   Overcast
10:52 PM 45.0 °F 43.5 °F 41.0 °F 86% 29.83 in 10.0 mi Variable 3.5 mph - N/A   Overcast
11:52 PM 45.0 °F - 39.9 °F 82% 29.82 in 10.0 mi Calm Calm - N/A   Overcast